669  
ASUS41 KRLX 222010  
RWRRLX  
WEST VIRGINIA REGIONAL WEATHER ROUNDUP  
NATIONAL WEATHER SERVICE CHARLESTON WV  
400 PM EDT FRI JUN 22 2018  
 
NOTE: "FAIR" INDICATES FEW OR NO CLOUDS BELOW 12,000 FEET WITH NO  
SIGNIFICANT WEATHER AND/OR S TO VISIBILITY
.  
 
WVZ003-222100-  
NORTHERN PANHANDLE OF WEST VIRGINIA  
 
CITY SKY/WX TMP DP RH WIND PRES REMARKS
 
WHEELING LGT RAIN 69 65 86 SE6 29.80R  

 
 
WVZ009-222100-  
NORTHWEST WEST VIRGINIA  
 
CITY SKY/WX TMP DP RH WIND PRES REMARKS
 
PARKERSBURG PTSUNNY 80 68 66 E6 29.76S  

 
 
WVZ006-222100-  
WESTERN WEST VIRGINIA  
 
CITY SKY/WX TMP DP RH WIND PRES REMARKS
 
HUNTINGTON FAIR 81 69 67 SW5 29.71F  

 
 
WVZ015-222100-  
WEST CENTRAL WEST VIRGINIA  
 
CITY SKY/WX TMP DP RH WIND PRES REMARKS
 
CHARLESTON PTSUNNY 82 68 62 S8 29.74S  

 
 
WVZ022-031-222100-  
NORTH CENTRAL WEST VIRGINIA  
 
CITY SKY/WX TMP DP RH WIND PRES REMARKS
 
CLARKSBURG PTSUNNY 72 66 81 E6 29.80R  
MORGANTOWN LGT RAIN 65 62 90 E8 29.83F FOG  

 
 
WVZ025-035-042-045-222100-  
SOUTHERN WEST VIRGINIA  
 
CITY SKY/WX TMP DP RH WIND PRES REMARKS
 
BECKLEY FAIR 74 64 71 VRB5 29.84F  
LOGAN FAIR 77 66 69 VRB5G17 29.77F  
BLUEFIELD FAIR 75 67 76 VRB5 29.85F  
LEWISBURG PTSUNNY 70 67 92 CALM 29.86R  

 
 
WVZ047-222100-  
NORTHERN MOUNTAINS OF WEST VIRGINIA  
 
CITY SKY/WX TMP DP RH WIND PRES REMARKS
 
ELKINS LGT RAIN 69 65 86 CALM 29.86S  

 
 
WVZ052-222100-  
EASTERN PANHANDLE OF WEST VIRGINIA  
 
CITY SKY/WX TMP DP RH WIND PRES REMARKS
 
MARTINSBURG CLOUDY 67 65 93 VRB5 29.90F  
PETERSBURG CLOUDY 64 61 88 N5 29.90S FOG  

 
 
 
CLICK HERE TO GO TO PREVIOUS BULLETINS.

The Nexlab WV Page
The Nexlab OH Page
The Nexlab KY Page
The Nexlab VA Page Main Text Page